{"data":{"norad_id":57255,"epoch":"2026-05-24T22:18:48.326400Z","epoch_age_seconds":80968,"freshness":"FRESH","line1":"1 57255U 23094AP  26144.92972600  .00000957  00000+0  44302-4 0  9991","line2":"2 57255  43.0017 308.9997 0001440 270.6584  89.4103 15.27579852158906","mean_motion":15.27579852,"eccentricity":0.000144,"inclination_deg":43.0017,"raan_deg":308.9997,"arg_perigee_deg":270.6584,"mean_anomaly_deg":89.4103,"bstar":4.4302e-5,"rev_number":15890,"period_min":94.266757846712,"perigee_km":482.06152834329,"apogee_km":484.03755006658,"semimajor_km":6861.1865392049,"source":"CELESTRAK","updated_at":"2026-05-25T13:38:18.279487Z"}}